FW1036 Weather Reports


time (UTC)temp
F
wind
direction
speed
knots
gust
knots
rain 1hr
in
rain 24hr
in
rain mn
in
humidity
%
barometer
mb
20260508121603 42 257 1.7 6.1 0.00 0.00 0.00 77 1011.1
20260508120055 41 240 1.7 3.5 0.00 0.00 0.00 79 1011.0
20260508114551 40 222 0.9 3.5 0.00 0.00 0.00 83 1010.9
20260508113104 39 222 0.0 0.0 0.00 0.00 0.00 85 1010.9
20260508111548 38 222 0.0 0.0 0.00 0.00 0.00 86 1010.9
20260508110042 37 222 0.0 0.0 0.00 0.00 0.00 87 1011.0
20260508104540 36 222 0.0 0.0 0.00 0.00 0.00 87 1011.0
20260508103039 36 222 0.0 0.0 0.00 0.00 0.00 87 1010.8
20260508101537 35 222 0.0 0.0 0.00 0.00 0.00 87 1010.8
20260508100035 35 222 0.0 0.0 0.00 0.00 0.00 86 1010.8
20260508094532 36 222 0.0 0.0 0.00 0.00 0.00 85 1010.8
20260508093032 36 222 0.0 0.9 0.00 0.00 0.00 84 1010.8
20260508091536 36 261 0.0 0.0 0.00 0.00 0.00 84 1010.8
20260508090037 36 261 0.0 0.0 0.00 0.00 0.00 84 1010.7
20260508084527 37 261 0.0 0.0 0.00 0.00 0.00 83 1010.7
20260508083024 37 261 0.0 0.0 0.00 0.00 0.00 82 1010.8
20260508081521 38 261 0.0 0.0 0.00 0.00 0.00 80 1010.9
20260508080030 39 261 0.0 0.0 0.00 0.00 0.00 79 1010.9
20260508074526 40 261 0.0 0.0 0.00 0.00 0.00 79 1010.8
20260508073015 41 261 0.0 3.5 0.00 0.00 0.00 79 1010.8
20260508071614 40 240 2.6 4.3 0.00 0.00 0.00 79 1010.7
20260508070010 41 233 1.7 4.3 0.00 0.00 0.00 78 1010.4
20260508064507 42 228 1.7 5.2 0.00 0.00 0.00 77 1010.5
20260508063005 42 213 1.7 4.3 0.00 0.00 0.00 75 1010.7
20260508061503 43 238 3.5 6.1 0.00 0.00 0.00 75 1010.9
20260508060109 43 220 2.6 5.2 0.00 0.00 0.00 75 1010.9
20260508054558 43 225 2.6 6.1 0.00 0.00 0.00 75 1010.9
20260508053056 43 229 2.6 5.2 0.00 0.00 0.00 75 1011.2
20260508051554 43 216 2.6 4.3 0.00 0.00 0.00 73 1011.2
20260508050053 43 223 2.6 6.1 0.00 0.00 0.00 73 1011.4
20260508044546 43 219 1.7 5.2 0.00 0.00 0.00 73 1011.3
20260508043045 42 212 1.7 5.2 0.00 0.00 0.00 71 1011.4
20260508041540 42 223 2.6 5.2 0.00 0.00 0.00 71 1011.5
20260508040036 43 219 2.6 7.0 0.00 0.00 0.00 70 1011.5
20260508034536 43 207 1.7 7.0 0.00 0.00 0.00 70 1011.4
20260508033036 42 242 0.9 3.5 0.00 0.00 0.00 73 1011.3
20260508031535 41 175 3.5 7.0 0.00 0.00 0.00 75 1011.4
20260508030039 40 163 3.5 6.1 0.00 0.00 0.00 77 1011.5
20260508024538 39 150 0.9 2.6 0.00 0.00 0.00 79 1011.7
20260508023034 39 150 1.7 2.6 0.00 0.00 0.00 79 1011.7
20260508021544 39 133 1.7 3.5 0.00 0.00 0.00 77 1011.5
20260508020032 39 132 1.7 3.5 0.00 0.00 0.00 76 1011.3
20260508014532 41 142 1.7 4.3 0.00 0.00 0.00 74 1011.5
20260508013039 41 140 5.2 7.8 0.00 0.00 0.00 73 1011.3
20260508011533 41 171 5.2 8.7 0.00 0.00 0.00 73 1011.4
20260508010033 42 136 7.0 11.3 0.00 0.00 0.00 72 1011.3
20260508004537 42 148 3.5 7.0 0.00 0.00 0.00 72 1011.2
20260508003029 42 128 5.2 7.0 0.00 0.00 0.00 70 1011.0
20260508001528 43 125 3.5 7.0 0.00 0.00 0.00 69 1011.1
20260508000028 43 125 3.5 7.8 0.00 0.00 0.00 66 1010.9
20260507234526 43 85 3.5 7.8 0.00 0.00 0.00 66 1011.0
20260507233035 44 111 4.3 8.7 0.00 0.00 0.00 64 1010.9
20260507231525 43 93 5.2 8.7 0.00 0.00 0.00 66 1011.0
20260507230026 44 82 6.1 8.7 0.00 0.00 0.00 67 1011.1
20260507224523 45 84 6.1 7.8 0.00 0.00 0.00 67 1010.9
20260507223023 45 73 4.3 7.8 0.00 0.00 0.00 69 1011.1
20260507221522 44 54 6.1 8.7 0.00 0.00 0.00 68 1011.1
20260507220022 46 70 5.2 7.8 0.00 0.00 0.00 70 1011.1
20260507214526 44 56 3.5 9.6 0.00 0.00 0.00 70 1011.1
20260507213020 44 68 5.2 9.6 0.00 0.00 0.00 70 1011.1
20260507211518 45 77 7.0 10.4 0.00 0.00 0.00 70 1011.1
20260507210032 42 82 5.2 8.7 0.00 0.00 0.00 71 1011.3
20260507204516 43 84 5.2 8.7 0.00 0.00 0.00 72 1011.3
20260507203015 45 40 7.8 10.4 0.00 0.00 0.00 73 1011.4
20260507201514 43 61 4.3 8.7 0.00 0.00 0.00 72 1011.4
20260507200018 43 56 6.1 8.7 0.00 0.00 0.00 74 1011.7
20260507194517 42 36 3.5 7.8 0.00 0.00 0.00 68 1011.9
20260507193014 44 52 8.7 11.3 0.00 0.00 0.00 68 1011.5
20260507191511 44 48 7.8 11.3 0.00 0.00 0.00 67 1011.7
20260507190012 44 41 7.0 11.3 0.00 0.00 0.00 69 1011.8
20260507184516 43 46 7.8 11.3 0.00 0.00 0.00 66 1012.0
20260507183009 44 53 8.7 12.2 0.00 0.00 0.00 67 1011.9
20260507181508 43 57 7.0 12.2 0.00 0.00 0.00 71 1012.0
20260507180007 43 60 7.0 9.6 0.00 0.00 0.00 71 1011.9
20260507174507 43 81 7.8 12.2 0.00 0.00 0.00 69 1011.9
20260507173006 44 42 9.6 13.0 0.00 0.00 0.00 68 1011.9
20260507171504 44 57 5.2 9.6 0.00 0.00 0.00 68 1012.0
20260507170005 45 94 5.2 9.6 0.00 0.00 0.00 68 1011.8
20260507164504 45 67 2.6 10.4 0.00 0.00 0.00 68 1011.7
20260507163003 47 94 2.6 6.1 0.00 0.00 0.00 66 1011.9
20260507161502 49 22 2.6 7.8 0.00 0.00 0.00 56 1011.9
20260507160001 49 304 1.7 9.6 0.00 0.00 0.00 56 1011.9
20260507154607 49 294 0.9 4.3 0.00 0.00 0.00 58 1012.0
20260507153159 49 284 0.9 3.5 0.00 0.00 0.00 56 1012.0
20260507151558 49 277 3.5 13.0 0.00 0.00 0.00 58 1011.8
20260507150059 49 25 0.0 4.3 0.00 0.00 0.00 59 1012.1
20260507144554 48 263 1.7 4.3 0.00 0.00 0.00 57 1012.1
20260507143053 48 173 0.0 4.3 0.00 0.00 0.00 62 1012.1
20260507141544 47 267 1.7 3.5 0.00 0.00 0.00 60 1012.2
20260507140041 46 275 1.7 7.0 0.00 0.00 0.00 62 1012.3
20260507134539 46 15 1.7 5.2 0.00 0.00 0.00 64 1012.4
20260507133035 44 295 0.9 5.2 0.00 0.00 0.00 66 1012.5
20260507131531 43 92 0.9 3.5 0.00 0.00 0.00 69 1012.4
20260507130037 42 82 0.0 0.0 0.00 0.00 0.00 71 1012.6
20260507124529 41 82 0.0 3.5 0.00 0.00 0.00 77 1012.6
20260507123020 40 17 0.9 2.6 0.00 0.00 0.00 78 1012.6